Location: Earls Croome
(52.0667°N, 2.2000°W)
Time: 23:29:36
(UTC+00:00)

Cosmos 1484 Rocket - Pass Details

Date: 17 November 2019
Orbit: 507 x 559 km, 97.4° (Epoch: 14 December)

Event Time Altitude Azimuth Distance (km) Brightness Sun altitude
Rises 05:34:10 0° 12° (NNE) 2,748 6.4 -17.8°
Reaches altitude 10° 05:36:19 10° 10° (N) 1,853 5.5 -17.4°
Maximum altitude 05:40:19 74° 287° (WNW) 588 2.7 -16.8°
Drops below altitude 10° 05:44:19 10° 202° (SSW) 1,846 5.4 -16.2°
Sets 05:46:26 0° 200° (SSW) 2,736 6.3 -15.9°
